Погода в Свияжске

Россия / Республика Татарстан     55°46′19″N   48°39′31″E
темп.,
°C
ветер,
м/с
пор.,
м/с
влажн.,
%
обл.,
%
осадки,
мм/ч
давл.,
гПа
погр.,
м
11 мая, вт
вт1100:00+14ссв489479 0.5 1022209
03:00+13ссв3592100 0.5 1023109
06:00+15св4885100 0.0 1024260
09:00+19всв456090 0.0 1025485
12:00+23в3443100 0.0 10251122
15:00+24в344596 0.0 10251466
18:00+22св355672 0.0 102595
21:00+17всв5117490 0.1 1027297
12 мая, ср
ср1200:00+17в41076100 0.0 1027213
03:00+14в22807 0.0 102716
06:00+16в28655 0.0 1027233
09:00+21вюв574969 0.0 1027565
12:00+24юв454523 0.0 10271303
15:00+24юв474088 0.0 10262314
18:00+22вюв355527 0.0 1026152
21:00+17юв1165100 0.0 102616
13 мая, чт
чт1300:00+15зюз1174100 0.0 102711
03:00+15всв1172100 0.0 102711
06:00+17в237016 0.0 1027111
09:00+21юв575125 0.0 1026728
12:00+23юв684172 0.0 10261217
15:00+23ю5747100 0.0 10251338
18:00+21в485599 0.0 1023264
21:00+17юв496497 0.0 1023162
14 мая, пт
пт1400:00+15юв337161 0.2 102344
03:00+14юв337542 0.4 102338
06:00+16вюв310735 0.5 1023266
09:00+21ююв575055 0.5 1022602
12:00+25ю574799 0.0 1022945
15:00+25ююз574794 0.0 10221134
18:00+23ююв495798 0.0 1021270
21:00+18ю336356 0.0 102142
15 мая, сб
сб1500:00+17ю386265 0.0 1020112
03:00+15ю35615 0.0 102158
06:00+18ююв310635 0.0 1020257
09:00+23ю59455 0.0 1020467
12:00+26ю69374 0.0 1019834
15:00+27ю693824 0.0 10181167
18:00+23ююв410522 0.0 1018318
21:00+18ююв34605 0.0 101755